TimeCDT,TemperatureF,Dew PointF,Humidity,Sea Level PressureIn,VisibilityMPH,Wind Direction,Wind SpeedMPH,Gust SpeedMPH,PrecipitationIn,Events,Conditions,WindDirDegrees,DateUTC
12:52 AM,57.9,51.1,78,29.82,10.0,South,3.5,-,N/A,,Clear,180,2012-10-17 05:52:00
1:52 AM,55.9,50.0,80,29.82,10.0,Calm,Calm,-,N/A,,Clear,0,2012-10-17 06:52:00
2:52 AM,54.0,50.0,86,29.81,10.0,SE,5.8,-,N/A,,Clear,140,2012-10-17 07:52:00
3:52 AM,52.0,50.0,93,29.81,9.0,SE,4.6,-,N/A,,Clear,140,2012-10-17 08:52:00
4:52 AM,51.1,48.9,92,29.81,10.0,SE,3.5,-,N/A,,Clear,140,2012-10-17 09:52:00
5:52 AM,51.1,48.9,92,29.81,10.0,Calm,Calm,-,N/A,,Clear,0,2012-10-17 10:52:00
6:52 AM,51.1,48.0,89,29.80,10.0,SSE,6.9,-,N/A,,Clear,150,2012-10-17 11:52:00
7:52 AM,55.0,50.0,83,29.80,10.0,SSE,5.8,-,N/A,,Scattered Clouds,160,2012-10-17 12:52:00
8:52 AM,60.1,52.0,75,29.81,10.0,SSE,4.6,-,N/A,,Clear,160,2012-10-17 13:52:00
9:52 AM,68.0,51.1,55,29.79,10.0,South,8.1,-,N/A,,Partly Cloudy,180,2012-10-17 14:52:00
10:52 AM,71.1,46.9,42,29.77,10.0,SSW,20.7,29.9,N/A,,Scattered Clouds,200,2012-10-17 15:52:00
11:52 AM,72.0,46.9,41,29.75,10.0,South,16.1,-,N/A,,Mostly Cloudy,190,2012-10-17 16:52:00
12:52 PM,75.9,48.0,37,29.72,10.0,South,12.7,27.6,N/A,,Clear,180,2012-10-17 17:52:00
1:52 PM,78.1,46.9,33,29.69,10.0,South,18.4,24.2,N/A,,Clear,180,2012-10-17 18:52:00
2:52 PM,75.9,46.9,36,29.66,10.0,South,19.6,27.6,N/A,,Clear,190,2012-10-17 19:52:00
3:52 PM,77.0,46.9,34,29.64,10.0,South,20.7,29.9,N/A,,Clear,190,2012-10-17 20:52:00
4:52 PM,75.9,46.9,36,29.62,10.0,South,15.0,21.9,N/A,,Clear,180,2012-10-17 21:52:00
5:52 PM,73.0,46.9,39,29.61,10.0,South,10.4,-,N/A,,Clear,180,2012-10-17 22:52:00
6:52 PM,71.1,45.0,39,29.59,10.0,South,12.7,20.7,N/A,,Clear,170,2012-10-17 23:52:00
7:52 PM,70.0,46.0,42,29.56,10.0,South,17.3,28.8,N/A,,Clear,180,2012-10-18 00:52:00
8:52 PM,70.0,46.0,42,29.52,10.0,South,18.4,31.1,N/A,,Clear,180,2012-10-18 01:52:00
9:52 PM,70.0,46.9,44,29.52,10.0,South,12.7,23.0,N/A,,Mostly Cloudy,180,2012-10-18 02:52:00
10:04 PM,69.8,46.4,43,29.52,10.0,South,16.1,26.5,N/A,Thunderstorm,Mostly Cloudy,180,2012-10-18 03:04:00
10:47 PM,60.8,55.4,82,29.57,1.8,SW,8.1,-,0.14,Rain-Thunderstorm,Heavy Thunderstorms and Rain,230,2012-10-18 03:47:00
10:52 PM,60.1,55.0,83,29.56,1.8,SW,8.1,-,0.19,Rain-Thunderstorm,Heavy Thunderstorms and Rain,220,2012-10-18 03:52:00
11:06 PM,60.8,55.4,82,29.63,2.0,WSW,11.5,21.9,0.16,Rain-Thunderstorm,Heavy Rain,250,2012-10-18 04:06:00
11:20 PM,59.0,57.2,94,29.66,2.5,West,13.8,21.9,0.27,Rain-Thunderstorm,Heavy Rain,280,2012-10-18 04:20:00
11:23 PM,59.0,57.2,94,29.65,2.5,West,10.4,19.6,0.28,Rain-Thunderstorm,Heavy Rain,270,2012-10-18 04:23:00
11:31 PM,59.0,57.2,94,29.66,3.0,West,6.9,-,0.31,Rain-Thunderstorm,Rain,280,2012-10-18 04:31:00
11:52 PM,59.0,57.0,93,29.65,4.0,Calm,Calm,-,0.37,Rain-Thunderstorm,Rain,0,2012-10-18 04:52:00